This is the latest recevied weather packets stored in our database for station/object W9QL-13. If no packets are shown the sender has not sent any weather packets the latest 10 day(s).
| Time | Temp. | Humidity | Pressure | Rain* | Wind** | Luminosity | Snow |
|---|---|---|---|---|---|---|---|
| 1777842772 | 19.44° C | 40% | 1004.7 hPa | 0 mm | - | - | - |
| 1777842469 | 19.44° C | 40% | 1004.5 hPa | 0 mm | - | - | - |
| 1777842169 | 18.89° C | 40% | 1004.9 hPa | 0 mm | - | - | - |
| 1777841869 | 18.89° C | 40% | 1004.9 hPa | 0 mm | - | - | - |
| 1777841569 | 18.89° C | 40% | 1005 hPa | 0 mm | - | - | - |
| 1777841239 | 18.89° C | 41% | 1004.7 hPa | 0 mm | - | - | - |
| 1777840939 | 18.89° C | 44% | 1005.3 hPa | 0 mm | - | - | - |
| 1777840609 | 18.33° C | 45% | 1005.4 hPa | 0 mm | - | - | - |
| 1777840279 | 18.33° C | 45% | 1005.5 hPa | 0 mm | - | - | - |
| 1777839949 | 18.33° C | 47% | 1005.7 hPa | 0 mm | - | - | - |
| 1777839619 | 17.78° C | 46% | 1005.8 hPa | 0 mm | - | - | - |
| 1777839321 | 17.78° C | 48% | 1006 hPa | 0 mm | - | - | - |
| 1777838989 | 17.78° C | 46% | 1006.2 hPa | 0 mm | - | - | - |
| 1777838689 | 17.78° C | 47% | 1006.4 hPa | 0 mm | - | - | - |
| 1777838389 | 17.78° C | 47% | 1006.5 hPa | 0 mm | - | - | - |
| 1777838089 | 17.22° C | 49% | 1006.6 hPa | 0 mm | - | - | - |
| 1777837789 | 17.22° C | 47% | 1006.8 hPa | 0 mm | - | - | - |
| 1777837489 | 17.22° C | 47% | 1006.9 hPa | 0 mm | - | - | - |
| 1777837189 | 16.67° C | 46% | 1006.8 hPa | 0 mm | - | - | - |
| 1777836889 | 16.67° C | 47% | 1006.9 hPa | 0 mm | - | - | - |
| 1777836589 | 16.67° C | 45% | 1006.9 hPa | 0 mm | - | - | - |
| 1777836289 | 16.67° C | 44% | 1006.9 hPa | 0 mm | - | - | - |
| 1777835988 | 17.22° C | 43% | 1006.9 hPa | 0 mm | - | - | - |
| 1777835658 | 17.22° C | 42% | 1006.9 hPa | 0 mm | - | - | - |
| 1777835358 | 16.67° C | 48% | 1006.9 hPa | 0 mm | - | - | - |
* Rain latest hour (hover to see other rain measurements)
** Current wind speed in m/s (hover to see current wind gust speed)